CMB4664 PABR-KRME

Flight info

Callsign CMB4664
Flight time N/A
Altitude 33000
Route SCC ADREW YEV 68N30 67N124W 65N17/N0481F350 64N114W 63N108W 62N104W 60N98W/N0475F370 YYQ 5890N 57N086W 5584N 54N082W 5079N YVO Q837 EPRES Q997 SASID/N0472F400 IKLAX Q844 VIBRU T634 BRUIN
Aircraft CL60/M-SBDE1E2E3FGHIJ1J4J5J7M3RWXYZ/LB1V1D1

Departure

Time N/A
Airport Wiley Post Will Rogers Memorial Airport (PABR)

Arrival

Time 2026-04-23 00:01
Airport Griffiss International Airport (KRME)
Time Latitude Longitude Altitude Speed Heading
2026-04-22 22:32 54.63863 -83.25980 33206 ft 566 kts 131°
2026-04-22 22:32 54.58068 -83.14296 33200 ft 565 kts 131°
2026-04-22 22:33 54.52298 -83.02715 33195 ft 565 kts 131°
2026-04-22 22:33 54.46473 -82.91077 33196 ft 564 kts 131°
2026-04-22 22:34 54.40743 -82.79680 33196 ft 563 kts 130°
2026-04-22 22:34 54.34798 -82.67912 33197 ft 563 kts 130°
2026-04-22 22:35 54.28906 -82.56304 33198 ft 562 kts 130°
2026-04-22 22:35 54.23697 -82.46089 33198 ft 562 kts 130°
2026-04-22 22:36 54.18477 -82.35892 33196 ft 562 kts 130°
2026-04-22 22:36 54.13238 -82.25703 33197 ft 560 kts 131°
2026-04-22 22:37 54.08089 -82.15733 33196 ft 557 kts 131°
2026-04-22 22:37 54.02842 -82.05930 33193 ft 556 kts 136°
2026-04-22 22:38 53.96728 -81.97804 33190 ft 553 kts 149°
2026-04-22 22:38 53.89949 -81.91697 33193 ft 552 kts 157°
2026-04-22 22:39 53.82906 -81.85930 33195 ft 553 kts 157°
2026-04-22 22:39 53.75951 -81.80248 33195 ft 553 kts 157°
2026-04-22 22:40 53.68945 -81.74538 33195 ft 553 kts 157°
2026-04-22 22:40 53.61906 -81.68821 33195 ft 553 kts 156°
2026-04-22 22:41 53.54768 -81.63041 33194 ft 553 kts 156°
2026-04-22 22:41 53.46753 -81.56574 33194 ft 554 kts 156°
2026-04-22 22:42 53.38584 -81.50010 33194 ft 555 kts 156°
2026-04-22 22:42 53.30411 -81.43468 33192 ft 556 kts 157°
2026-04-22 22:43 53.22335 -81.37029 33189 ft 557 kts 157°
2026-04-22 22:43 53.14284 -81.30638 33187 ft 558 kts 158°
2026-04-22 22:44 53.06103 -81.24169 33185 ft 558 kts 158°
2026-04-22 22:44 52.97877 -81.17693 33185 ft 558 kts 158°
2026-04-22 22:45 52.89687 -81.11271 33186 ft 559 kts 158°
2026-04-22 22:45 52.81517 -81.04892 33186 ft 559 kts 158°
2026-04-22 22:46 52.73235 -80.98452 33181 ft 559 kts 158°
2026-04-22 22:46 52.64877 -80.91981 33175 ft 559 kts 158°
2026-04-22 22:47 52.56529 -80.85546 33174 ft 559 kts 158°
2026-04-22 22:47 52.48341 -80.79260 33172 ft 559 kts 158°
2026-04-22 22:48 52.39992 -80.72878 33169 ft 560 kts 158°
2026-04-22 22:48 52.31552 -80.66453 33168 ft 560 kts 158°
2026-04-22 22:49 52.23137 -80.60073 33166 ft 560 kts 157°
2026-04-22 22:49 52.14767 -80.53754 33166 ft 560 kts 157°
2026-04-22 22:50 52.06418 -80.47477 33166 ft 559 kts 157°
2026-04-22 22:50 51.98208 -80.41330 33164 ft 559 kts 157°
2026-04-22 22:51 51.90016 -80.35221 33165 ft 560 kts 157°
2026-04-22 22:51 51.81660 -80.29017 33164 ft 559 kts 158°
2026-04-22 22:52 51.73372 -80.22889 33164 ft 559 kts 158°
2026-04-22 22:52 51.65008 -80.16729 33165 ft 559 kts 158°
2026-04-22 22:53 51.56620 -80.10577 33165 ft 559 kts 158°
2026-04-22 22:53 51.48302 -80.04501 33166 ft 559 kts 158°
2026-04-22 22:54 51.39937 -79.98416 33166 ft 560 kts 158°
2026-04-22 22:54 51.31650 -79.92411 33164 ft 560 kts 158°
2026-04-22 22:55 51.23369 -79.86434 33166 ft 560 kts 158°
2026-04-22 22:55 51.11097 -79.77620 33158 ft 560 kts 158°
2026-04-22 22:56 51.03047 -79.71867 33156 ft 561 kts 158°
2026-04-22 22:56 50.94852 -79.66034 33150 ft 563 kts 158°
2026-04-22 22:57 50.86653 -79.60220 33144 ft 564 kts 158°
2026-04-22 22:57 50.78279 -79.54305 33139 ft 565 kts 158°
2026-04-22 22:58 50.69950 -79.48445 33135 ft 566 kts 158°
2026-04-22 22:58 50.61610 -79.42601 33129 ft 567 kts 159°
2026-04-22 22:59 50.53215 -79.36740 33121 ft 569 kts 159°
2026-04-22 22:59 50.44893 -79.30953 33116 ft 569 kts 159°
2026-04-22 23:00 50.36592 -79.25203 33112 ft 570 kts 159°
2026-04-22 23:00 50.28658 -79.19727 33108 ft 570 kts 159°
2026-04-22 23:01 50.21230 -79.14619 33104 ft 570 kts 159°
2026-04-22 23:01 50.13883 -79.09583 33098 ft 570 kts 160°
2026-04-22 23:02 50.06467 -79.04517 33098 ft 570 kts 160°
2026-04-22 23:02 49.99106 -78.99509 33104 ft 569 kts 160°
2026-04-22 23:03 49.91794 -78.94601 33110 ft 570 kts 160°
2026-04-22 23:03 49.84238 -78.89548 33111 ft 571 kts 160°
2026-04-22 23:04 49.76776 -78.84575 33106 ft 572 kts 160°
2026-04-22 23:04 49.69375 -78.79658 33107 ft 572 kts 160°
2026-04-22 23:05 49.61749 -78.74609 33102 ft 571 kts 160°
2026-04-22 23:05 49.53752 -78.69332 33095 ft 571 kts 160°
2026-04-22 23:06 49.45184 -78.63699 33092 ft 570 kts 160°
2026-04-22 23:06 49.36601 -78.58078 33091 ft 569 kts 160°
2026-04-22 23:07 49.28115 -78.52543 33090 ft 569 kts 160°
2026-04-22 23:07 49.19533 -78.46966 33089 ft 570 kts 160°
2026-04-22 23:08 49.10951 -78.41409 33087 ft 570 kts 160°
2026-04-22 23:08 49.02410 -78.35899 33085 ft 571 kts 160°
2026-04-22 23:09 48.94050 -78.30526 33083 ft 571 kts 161°
2026-04-22 23:09 48.85576 -78.25100 33083 ft 571 kts 161°
2026-04-22 23:10 48.76922 -78.19580 33081 ft 571 kts 161°
2026-04-22 23:10 48.68457 -78.14200 33080 ft 572 kts 160°
2026-04-22 23:11 48.60065 -78.08886 33079 ft 572 kts 161°
2026-04-22 23:11 48.51593 -78.03542 33078 ft 573 kts 161°
2026-04-22 23:12 48.43099 -77.98202 33075 ft 574 kts 161°
2026-04-22 23:12 48.34598 -77.92879 33071 ft 575 kts 161°
2026-04-22 23:13 48.26281 -77.87689 33069 ft 575 kts 161°
2026-04-22 23:13 48.18066 -77.82382 33069 ft 577 kts 155°
2026-04-22 23:14 48.10618 -77.75380 33063 ft 578 kts 148°
2026-04-22 23:14 48.02970 -77.67853 33061 ft 575 kts 148°
2026-04-22 23:15 47.95446 -77.60473 33066 ft 574 kts 148°
2026-04-22 23:15 47.87930 -77.53121 33067 ft 574 kts 148°
2026-04-22 23:16 47.80296 -77.45677 33066 ft 574 kts 148°
2026-04-22 23:16 47.72649 -77.38248 33064 ft 573 kts 148°
2026-04-22 23:17 47.65045 -77.30881 33062 ft 572 kts 149°
2026-04-22 23:17 47.57421 -77.23523 33059 ft 571 kts 149°
2026-04-22 23:18 47.49718 -77.16114 33056 ft 570 kts 149°
2026-04-22 23:18 47.41996 -77.08713 33051 ft 569 kts 149°
2026-04-22 23:19 47.34364 -77.01419 33044 ft 568 kts 149°
2026-04-22 23:19 47.26765 -76.94185 33039 ft 567 kts 149°
2026-04-22 23:20 47.19087 -76.86906 33033 ft 566 kts 149°
2026-04-22 23:20 47.11439 -76.79684 33028 ft 566 kts 149°
2026-04-22 23:21 47.03840 -76.72534 33019 ft 565 kts 149°
2026-04-22 23:21 46.96382 -76.65540 33013 ft 565 kts 149°
2026-04-22 23:22 46.89001 -76.58641 33010 ft 564 kts 149°
2026-04-22 23:22 46.81635 -76.51995 33007 ft 563 kts 150°
2026-04-22 23:23 46.74114 -76.45325 33005 ft 563 kts 150°
2026-04-22 23:23 46.66614 -76.38691 33003 ft 563 kts 151°
2026-04-22 23:24 46.59314 -76.32252 33001 ft 564 kts 152°
2026-04-22 23:24 46.52322 -76.26101 32999 ft 565 kts 152°
2026-04-22 23:25 46.45255 -76.20380 32993 ft 562 kts 160°
2026-04-22 23:25 46.37575 -76.16682 32991 ft 553 kts 173°
2026-04-22 23:26 46.29687 -76.15081 32990 ft 545 kts 182°
2026-04-22 23:26 46.21814 -76.14262 32992 ft 545 kts 183°
2026-04-22 23:27 46.14082 -76.13451 32990 ft 545 kts 183°
2026-04-22 23:27 46.06240 -76.12622 32989 ft 545 kts 183°
2026-04-22 23:28 45.98381 -76.11789 32988 ft 545 kts 183°
2026-04-22 23:28 45.90389 -76.10940 32986 ft 544 kts 183°
2026-04-22 23:29 45.82621 -76.10113 32985 ft 543 kts 183°
2026-04-22 23:29 45.74933 -76.09296 32982 ft 543 kts 183°
2026-04-22 23:30 45.67124 -76.08467 32980 ft 543 kts 183°
2026-04-22 23:30 45.59207 -76.07628 32978 ft 543 kts 183°
2026-04-22 23:31 45.51136 -76.06773 32981 ft 544 kts 183°
2026-04-22 23:31 45.43214 -76.05927 32953 ft 528 kts 183°
2026-04-22 23:32 45.35744 -76.05131 32961 ft 512 kts 183°
2026-04-22 23:32 45.32167 -76.04744 32739 ft 497 kts 184°
2026-04-22 23:32 45.28639 -76.04372 32123 ft 497 kts 184°
2026-04-22 23:33 45.25066 -76.04002 31296 ft 500 kts 184°
2026-04-22 23:33 45.21467 -76.03629 30393 ft 505 kts 184°
2026-04-22 23:33 45.17799 -76.03250 29535 ft 508 kts 184°
2026-04-22 23:33 45.14161 -76.02873 28664 ft 509 kts 184°
2026-04-22 23:34 45.10514 -76.02491 27867 ft 503 kts 183°
2026-04-22 23:34 45.06971 -76.02119 27162 ft 495 kts 183°
2026-04-22 23:34 45.03405 -76.01745 26436 ft 488 kts 183°
2026-04-22 23:34 44.99787 -76.01367 25642 ft 481 kts 183°
2026-04-22 23:35 44.96365 -76.01011 24877 ft 474 kts 183°
2026-04-22 23:35 44.92912 -76.00651 24164 ft 465 kts 183°
2026-04-22 23:35 44.89551 -76.00299 23876 ft 457 kts 183°
2026-04-22 23:35 44.86343 -75.99970 23810 ft 459 kts 182°
2026-04-22 23:36 44.83074 -75.99636 23796 ft 461 kts 182°
2026-04-22 23:36 44.79826 -75.99303 23796 ft 462 kts 182°
2026-04-22 23:36 44.76538 -75.98965 23795 ft 462 kts 182°
2026-04-22 23:36 44.73303 -75.98634 23882 ft 462 kts 182°
2026-04-22 23:37 44.70009 -75.98359 23953 ft 460 kts 186°
2026-04-22 23:37 44.66787 -75.98567 23971 ft 454 kts 192°
2026-04-22 23:37 44.63446 -75.98966 23979 ft 452 kts 192°
2026-04-22 23:37 44.60214 -75.99345 23975 ft 450 kts 192°
2026-04-22 23:38 44.56972 -75.99723 23980 ft 449 kts 192°
2026-04-22 23:38 44.53775 -76.00094 23983 ft 449 kts 192°
2026-04-22 23:38 44.50614 -76.00458 23984 ft 450 kts 192°
2026-04-22 23:38 44.47205 -76.00848 23981 ft 451 kts 192°
2026-04-22 23:39 44.43968 -76.01217 23983 ft 452 kts 192°
2026-04-22 23:39 44.40772 -76.01579 23984 ft 453 kts 192°
2026-04-22 23:39 44.37494 -76.01949 23987 ft 454 kts 192°
2026-04-22 23:39 44.34290 -76.02309 23988 ft 455 kts 192°
2026-04-22 23:40 44.31014 -76.02676 23986 ft 456 kts 192°
2026-04-22 23:40 44.27610 -76.03054 23984 ft 456 kts 192°
2026-04-22 23:40 44.24154 -76.03437 23983 ft 455 kts 192°
2026-04-22 23:40 44.20700 -76.03818 23984 ft 455 kts 192°
2026-04-22 23:41 44.17382 -76.04184 23984 ft 455 kts 192°
2026-04-22 23:41 44.14069 -76.04548 23983 ft 454 kts 192°
2026-04-22 23:41 44.10626 -76.04926 23984 ft 454 kts 192°
2026-04-22 23:41 44.07264 -76.05295 23983 ft 454 kts 192°
2026-04-22 23:42 44.03876 -76.05666 23983 ft 454 kts 192°
2026-04-22 23:42 44.00576 -76.06027 23983 ft 454 kts 192°
2026-04-22 23:42 43.97315 -76.06382 23982 ft 451 kts 192°
2026-04-22 23:42 43.93900 -76.06791 23630 ft 438 kts 194°
2026-04-22 23:43 43.90515 -76.07352 22825 ft 436 kts 195°
2026-04-22 23:43 43.87340 -76.07934 22028 ft 434 kts 195°
2026-04-22 23:43 43.84120 -76.08518 21220 ft 428 kts 195°
2026-04-22 23:43 43.80967 -76.09087 20463 ft 422 kts 195°
2026-04-22 23:44 43.77728 -76.09670 19682 ft 415 kts 195°
2026-04-22 23:44 43.74494 -76.10249 18825 ft 406 kts 195°
2026-04-22 23:44 43.71500 -76.10476 17921 ft 408 kts 184°
2026-04-22 23:44 43.68620 -76.09826 17042 ft 411 kts 170°
2026-04-22 23:45 43.65820 -76.08202 16159 ft 413 kts 154°
2026-04-22 23:45 43.63449 -76.05708 15290 ft 413 kts 138°
2026-04-22 23:45 43.61486 -76.02473 14395 ft 408 kts 130°
2026-04-22 23:45 43.59650 -75.99249 13632 ft 399 kts 129°
2026-04-22 23:46 43.57864 -75.96104 12917 ft 386 kts 130°
2026-04-22 23:46 43.56165 -75.93111 12302 ft 372 kts 129°
2026-04-22 23:46 43.54543 -75.90257 11797 ft 358 kts 129°
2026-04-22 23:46 43.52949 -75.87453 11305 ft 346 kts 129°
2026-04-22 23:47 43.51396 -75.84720 10857 ft 335 kts 129°
2026-04-22 23:47 43.49936 -75.82149 10562 ft 334 kts 129°
2026-04-22 23:47 43.48534 -75.79667 10430 ft 317 kts 129°
2026-04-22 23:47 43.47127 -75.77198 9831 ft 314 kts 129°
2026-04-22 23:48 43.45712 -75.74734 9305 ft 314 kts 129°
2026-04-22 23:48 43.44316 -75.72294 8901 ft 310 kts 129°
2026-04-22 23:48 43.42957 -75.69917 8440 ft 305 kts 129°
2026-04-22 23:48 43.41602 -75.67556 7848 ft 300 kts 129°
2026-04-22 23:49 43.40245 -75.65185 7203 ft 297 kts 129°
2026-04-22 23:49 43.38897 -75.62870 6628 ft 290 kts 131°
2026-04-22 23:49 43.37537 -75.60829 6441 ft 271 kts 135°
2026-04-22 23:49 43.36183 -75.58897 5735 ft 275 kts 136°
2026-04-22 23:50 43.34783 -75.56910 5062 ft 276 kts 136°
2026-04-22 23:50 43.33359 -75.54884 4466 ft 271 kts 136°
2026-04-22 23:50 43.31891 -75.52792 3842 ft 267 kts 136°
2026-04-22 23:50 43.30441 -75.50736 3021 ft 271 kts 136°
2026-04-22 23:51 43.29060 -75.48774 2522 ft 262 kts 135°
2026-04-22 23:51 43.27854 -75.47061 2325 ft 247 kts 135°
2026-04-22 23:51 43.26501 -75.45156 2378 ft 254 kts 135°
2026-04-22 23:51 43.25191 -75.43289 2762 ft 253 kts 135°
2026-04-22 23:52 43.23833 -75.41358 2998 ft 255 kts 135°
2026-04-22 23:52 43.22460 -75.39414 3040 ft 255 kts 135°
2026-04-22 23:52 43.21076 -75.37447 3017 ft 257 kts 134°
2026-04-22 23:52 43.19717 -75.35493 3010 ft 254 kts 131°
2026-04-22 23:53 43.18919 -75.33328 3017 ft 249 kts 101°
2026-04-22 23:53 43.19163 -75.30911 3026 ft 234 kts 63°
2026-04-22 23:53 43.20285 -75.29062 3023 ft 231 kts 46°
2026-04-22 23:53 43.21688 -75.27613 3008 ft 231 kts 20°
2026-04-22 23:54 43.23419 -75.27559 2982 ft 229 kts 341°
2026-04-22 23:54 43.24920 -75.29037 3020 ft 230 kts 316°
2026-04-22 23:54 43.26235 -75.30804 3011 ft 229 kts 315°
2026-04-22 23:54 43.27533 -75.32571 3006 ft 228 kts 315°
2026-04-22 23:55 43.28760 -75.34241 3015 ft 215 kts 315°
2026-04-22 23:55 43.29895 -75.35783 3009 ft 211 kts 315°
2026-04-22 23:55 43.30990 -75.37270 3002 ft 210 kts 315°
2026-04-22 23:55 43.32111 -75.38791 3001 ft 209 kts 315°
2026-04-22 23:56 43.33308 -75.40415 2999 ft 209 kts 315°
2026-04-22 23:56 43.34541 -75.41928 2993 ft 210 kts 325°
2026-04-22 23:56 43.35936 -75.43221 2996 ft 210 kts 323°
2026-04-22 23:56 43.37070 -75.44852 2997 ft 209 kts 303°
2026-04-22 23:57 43.37751 -75.46894 2996 ft 208 kts 284°
2026-04-22 23:57 43.37924 -75.49099 3000 ft 207 kts 268°
2026-04-22 23:57 43.37693 -75.51248 2992 ft 205 kts 246°
2026-04-22 23:57 43.36579 -75.52814 3008 ft 204 kts 211°
2026-04-22 23:58 43.35180 -75.53796 3004 ft 204 kts 205°
2026-04-22 23:58 43.33684 -75.54127 3000 ft 203 kts 175°
2026-04-22 23:58 43.32323 -75.53343 2976 ft 204 kts 143°
2026-04-22 23:58 43.31227 -75.51855 2954 ft 206 kts 135°
2026-04-22 23:59 43.30182 -75.50350 2447 ft 202 kts 135°
2026-04-22 23:59 43.29168 -75.48907 1823 ft 193 kts 136°
2026-04-22 23:59 43.28180 -75.47503 1513 ft 193 kts 135°
2026-04-22 23:59 43.27187 -75.46095 1499 ft 195 kts 136°
2026-04-23 00:00 43.25269 -75.43414 917 ft 173 kts 134°
2026-04-23 00:00 43.24436 -75.42197 560 ft 141 kts 136°
2026-04-23 00:00 43.23763 -75.41272 493 ft 99 kts 129°
2026-04-23 00:01 43.23399 -75.40732 487 ft 55 kts 135°
2026-04-23 00:01 43.23137 -75.40366 486 ft 27 kts 147°